Weather History for KGMU - March, 2014

Change the Weather History Date:

Wednesday, March 26, 2014

  Actual Average Record
Temperature  
Mean Temperature 40 °F -  
Max Temperature 53 °F 64 °F 82 °F (2012)
Min Temperature 28 °F 44 °F 28 °F (2006)
Degree Days  
Heating Degree Days 25    
Moisture  
Dew Point 8 °F    
Average Humidity 29    
Maximum Humidity 51    
Minimum Humidity 15    
Precipitation  
Precipitation 0.00 in - - ()
Sea Level Pressure  
Sea Level Pressure 30.23 in    
Wind  
Wind Speed 4 mph (WSW)    
Max Wind Speed 9 mph    
Max Gust Speed -    
Visibility 10 miles    
Events      
Averages and records for this station are not official NWS values.
T = Trace of Precipitation, MM = Missing Value Source: NWS Daily Summary

Daily Weather History Graph

Daily Weather History Graph

Search for Another Location

Airport or City:

Trip Planner

Search our weather history database for the weather conditions in past years. The results will help you decide how hot, cold, wet, or windy it might be!

Date:

Astronomy

Mar. 26, 2014 Rise Set
Actual Time 7:24 AM EDT 7:45 PM EDT
Civil Twilight 6:59 AM EDT 8:11 PM EDT
Nautical Twilight 6:29 AM EDT 8:40 PM EDT
Astronomical Twilight 5:59 AM EDT 9:11 PM EDT
Moon 4:22 AM EDT (3/26) 3:32 PM EDT (3/26)
Length of Visible Light 13h 11m
Length of Day
12h 21m
Waning Crescent, 22% of the Moon is Illuminated
Mar 26
Waning Crescent
Mar 30
New
Apr 7
First Quarter
Apr 15
Full
Apr 22
Last Quarter

Hourly Weather History & Observations

Time (EDT) Temp. Windchill Dew Point Humidity Pressure Visibility Wind Dir Wind Speed Gust Speed Precip Events Conditions
12:53 AM 33.1 °F 28.7 °F 10.0 °F 38% 30.12 in 10.0 mi NNE 4.6 mph - N/A   Clear
1:53 AM 33.1 °F 28.7 °F 7.0 °F 34% 30.14 in 10.0 mi NNW 4.6 mph - N/A   Clear
2:53 AM 32.0 °F 24.2 °F 6.1 °F 34% 30.14 in 10.0 mi North 9.2 mph - N/A   Clear
3:53 AM 30.0 °F - 8.1 °F 40% 30.14 in 10.0 mi Calm Calm - N/A   Clear
4:53 AM 28.9 °F 25.2 °F 9.0 °F 43% 30.14 in 10.0 mi NE 3.5 mph - N/A   Clear
5:53 AM 28.9 °F - 10.9 °F 47% 30.17 in 10.0 mi Calm Calm - N/A   Clear
6:53 AM 28.0 °F - 12.0 °F 51% 30.20 in 10.0 mi Calm Calm - N/A   Clear
7:53 AM 28.9 °F - 10.9 °F 47% 30.23 in 10.0 mi Calm Calm - N/A   Clear
8:53 AM 33.1 °F 28.7 °F 10.0 °F 38% 30.27 in 10.0 mi North 4.6 mph - N/A   Clear
9:53 AM 36.0 °F 32.1 °F 7.0 °F 30% 30.28 in 10.0 mi NNE 4.6 mph - N/A   Clear
10:53 AM 37.9 °F 34.4 °F 6.1 °F 27% 30.30 in 10.0 mi SW 4.6 mph - N/A   Clear
11:53 AM 41.0 °F - 3.9 °F 21% 30.30 in 10.0 mi Calm Calm - N/A   Clear
12:53 PM 44.1 °F 41.5 °F 3.9 °F 19% 30.29 in 10.0 mi Variable 4.6 mph - N/A   Clear
1:53 PM 46.0 °F 43.9 °F 5.0 °F 19% 30.27 in 10.0 mi SW 4.6 mph - N/A   Clear
2:53 PM 48.9 °F - 3.9 °F 16% 30.25 in 10.0 mi Variable 3.5 mph - N/A   Clear
3:53 PM 50.0 °F - 6.1 °F 17% 30.25 in 10.0 mi SW 8.1 mph - N/A   Clear
4:53 PM 52.0 °F - 7.0 °F 16% 30.24 in 10.0 mi SW 9.2 mph - N/A   Clear
5:53 PM 52.0 °F - 6.1 °F 16% 30.23 in 10.0 mi SSW 5.8 mph - N/A   Clear
6:53 PM 51.1 °F - 5.0 °F 15% 30.24 in 10.0 mi South 6.9 mph - N/A   Clear
7:53 PM 48.9 °F - 7.0 °F 18% 30.25 in 10.0 mi SSW 4.6 mph - N/A   Clear
8:53 PM 46.9 °F - 8.1 °F 21% 30.27 in 10.0 mi SSW 3.5 mph - N/A   Clear
9:53 PM 45.0 °F - 12.9 °F 27% 30.27 in 10.0 mi Calm Calm - N/A   Clear
10:53 PM 43.0 °F - 14.0 °F 31% 30.28 in 10.0 mi Calm Calm - N/A   Clear
11:53 PM 42.1 °F - 12.0 °F 29% 30.30 in 10.0 mi Calm Calm - N/A   Clear